Alliance, NE

3:32 AM MDT on July 25, 2017 (GMT -0600)
Alliance Municipal

Weather History for KAIA - December, 2012

Change the Weather History Date:

Friday, December 21, 2012

  Actual Average Record
Temperature  
Mean Temperature 30 °F 23 °F  
Max Temperature 53 °F 38 °F 63 °F (1900)
Min Temperature 6 °F 8 °F -27 °F (1983)
Degree Days  
Heating Degree Days 35 42  
Month to date heating degree days 735 862  
Since 1 July heating degree days 2298 2661  
Cooling Degree Days 0 0  
Month to date cooling degree days 0 0  
Year to date cooling degree days 959 564  
Moisture  
Dew Point 12 °F    
Average Humidity 57    
Maximum Humidity 92    
Minimum Humidity 22    
Precipitation  
Precipitation 0.00 in 0.01 in 0.52 in (1918)
Month to date precipitation 0.01 0.26  
Year to date precipitation 6.78 15.60  
Sea Level Pressure  
Sea Level Pressure 30.18 in    
Wind  
Wind Speed 5 mph (South)    
Max Wind Speed 14 mph    
Max Gust Speed 16 mph    
Visibility 10 miles    
Events      
T = Trace of Precipitation, MM = Missing Value Source: NWS Daily Summary

Daily Weather History Graph

Daily Weather History Graph

Search for Another Location

Airport or City:

Trip Planner

Search our weather history database for the weather conditions in past years. The results will help you decide how hot, cold, wet, or windy it might be!

Date:

Astronomy

Dec. 21, 2012 Rise Set
Actual Time 7:16 AM MST 4:22 PM MST
Civil Twilight 6:44 AM MST 4:54 PM MST
Nautical Twilight 6:09 AM MST 5:30 PM MST
Astronomical Twilight 5:35 AM MST 6:04 PM MST
Moon 12:14 PM MST (12/21) 1:01 AM MST (12/21)
Length of Visible Light 10h 10m
Length of Day
9h 06m
Waxing Gibbous, 65% of the Moon is Illuminated
Dec 21
Waxing Gibbous
Dec 28
Full
Jan 4
Last Quarter
Jan 11
New
Jan 18
First Quarter

Hourly Weather History & Observations

Time (MST) Temp. Windchill Dew Point Humidity Pressure Visibility Wind Dir Wind Speed Gust Speed Precip Events Conditions
12:53 AM 12.0 °F - 1.9 °F 64% 30.24 in 10.0 mi Calm Calm - N/A   Clear
1:53 AM 8.1 °F -4.3 °F -0.0 °F 70% 30.25 in 10.0 mi SSE 8.1 mph - N/A   Clear
2:53 AM 10.0 °F 0.4 °F 1.9 °F 70% 30.25 in 10.0 mi South 5.8 mph - N/A   Clear
3:53 AM 10.0 °F 0.4 °F 1.9 °F 70% 30.25 in 10.0 mi South 5.8 mph - N/A   Clear
4:53 AM 18.0 °F 6.1 °F 7.0 °F 62% 30.25 in 10.0 mi WSW 10.4 mph - N/A   Clear
5:53 AM 10.0 °F 3.6 °F 3.0 °F 73% 30.28 in 10.0 mi SSW 3.5 mph - N/A   Clear
6:53 AM 10.0 °F 3.6 °F 1.9 °F 70% 30.30 in 10.0 mi ESE 3.5 mph - N/A   Clear
7:53 AM 10.0 °F -1.9 °F 3.9 °F 76% 30.30 in 10.0 mi SSE 8.1 mph - N/A   Clear
8:53 AM 24.1 °F - 12.0 °F 60% 30.25 in 10.0 mi Calm Calm - N/A   Clear
9:53 AM 30.9 °F 24.3 °F 15.1 °F 52% 30.24 in 10.0 mi South 6.9 mph - N/A   Clear
10:53 AM 41.0 °F 39.0 °F 18.0 °F 40% 30.19 in 10.0 mi SSW 3.5 mph - N/A   Clear
11:53 AM 48.9 °F - 21.0 °F 33% 30.14 in 10.0 mi WSW 6.9 mph - N/A   Clear
12:53 PM 52.0 °F - 16.0 °F 24% 30.11 in 10.0 mi WSW 10.4 mph - N/A   Clear
1:53 PM 53.1 °F - 16.0 °F 23% 30.09 in 10.0 mi WSW 11.5 mph - N/A   Clear
2:53 PM 51.1 °F - 19.0 °F 28% 30.09 in 10.0 mi SW 5.8 mph - N/A   Clear
3:53 PM 41.0 °F 35.8 °F 21.0 °F 45% 30.12 in 10.0 mi SW 8.1 mph - N/A   Clear
4:53 PM 30.9 °F 24.3 °F 19.9 °F 64% 30.12 in 10.0 mi ESE 6.9 mph - N/A   Clear
5:53 PM 27.0 °F 19.5 °F 19.0 °F 72% 30.16 in 10.0 mi SSE 6.9 mph - N/A   Clear
6:53 PM 25.0 °F 19.3 °F 19.0 °F 78% 30.17 in 10.0 mi SSE 4.6 mph - N/A   Clear
7:53 PM 23.0 °F - 18.0 °F 81% 30.16 in 10.0 mi Calm Calm - N/A   Clear
8:53 PM 19.0 °F - 16.0 °F 88% 30.13 in 10.0 mi Calm Calm - N/A   Clear
9:53 PM 12.9 °F 5.2 °F 10.0 °F 88% 30.12 in 10.0 mi SSE 4.6 mph - N/A   Clear
10:53 PM 12.9 °F 2.6 °F 10.0 °F 88% 30.09 in 10.0 mi WSW 6.9 mph - N/A   Clear
11:53 PM 14.0 °F - 7.0 °F 74% 30.06 in 10.0 mi Calm Calm - N/A   Clear